• Em Portugal
  • Lista de países
  • Para 7 dias
  • Temperatura da água
  • Mapas de satélite
  • Mapa do tempo
  • Widgets de tempo
  • user-avatar
    Iniciar Sessão

    Previsão horária em Mauritius

    Hoje, 22 Abril, Domingo

    Tempo Temperatura Precipitação Vento Pressão Humidade
    00:00 +24°C° 0,1 mm 6 m/s 724 mmHg 82%
    01:00 +24°C° 0,1 mm 6 m/s 724 mmHg 82%
    02:00 +24°C° 0,1 mm 6 m/s 724 mmHg 83%
    03:00 +24°C° 0,1 mm 6 m/s 723 mmHg 84%
    04:00 +24°C° 0 mm 7 m/s 723 mmHg 84%
    05:00 +24°C° 0,2 mm 7 m/s 723 mmHg 84%
    06:00 +24°C° 0,2 mm 7 m/s 723 mmHg 84%
    07:00 +24°C° 0,2 mm 7 m/s 723 mmHg 84%
    08:00 +26°C° 0,2 mm 7 m/s 723 mmHg 81%
    09:00 +26°C° 0,2 mm 7 m/s 724 mmHg 79%
    10:00 +27°C° 0 mm 7 m/s 724 mmHg 75%
    11:00 +27°C° 0,1 mm 7 m/s 724 mmHg 73%
    12:00 +28°C° 0,1 mm 7 m/s 723 mmHg 72%
    13:00 +28°C° 0,1 mm 7 m/s 723 mmHg 70%
    14:00 +28°C° 0 mm 7 m/s 723 mmHg 71%
    15:00 +28°C° 0 mm 6 m/s 723 mmHg 71%
    16:00 +27°C° 0 mm 6 m/s 723 mmHg 71%
    17:00 +27°C° 0 mm 6 m/s 723 mmHg 73%
    18:00 +26°C° 0 mm 6 m/s 723 mmHg 75%
    19:00 +26°C° 0 mm 6 m/s 723 mmHg 77%
    20:00 +26°C° 0 mm 6 m/s 723 mmHg 78%
    21:00 +26°C° 0 mm 6 m/s 723 mmHg 78%
    22:00 +26°C° 0 mm 6 m/s 724 mmHg 78%
    23:00 +26°C° 0 mm 6 m/s 723 mmHg 79%

    Amanhã, 23 Abril, Segunda-feira

    Tempo Temperatura Precipitação Vento Pressão Humidade
    00:00 +26°C° 0 mm 6 m/s 723 mmHg 79%
    01:00 +24°C° 0 mm 6 m/s 723 mmHg 79%
    02:00 +24°C° 0 mm 6 m/s 723 mmHg 80%
    03:00 +24°C° 0 mm 7 m/s 723 mmHg 80%
    04:00 +24°C° 0 mm 7 m/s 722 mmHg 81%
    05:00 +24°C° 0 mm 7 m/s 722 mmHg 81%
    06:00 +24°C° 0 mm 7 m/s 723 mmHg 81%
    07:00 +24°C° 0 mm 7 m/s 723 mmHg 81%
    08:00 +26°C° 0 mm 7 m/s 723 mmHg 79%
    09:00 +27°C° 0 mm 7 m/s 723 mmHg 76%
    10:00 +27°C° 0 mm 7 m/s 723 mmHg 74%
    11:00 +27°C° 0 mm 7 m/s 723 mmHg 74%
    12:00 +28°C° 0 mm 7 m/s 722 mmHg 73%
    13:00 +28°C° 0 mm 7 m/s 722 mmHg 73%
    14:00 +28°C° 0,1 mm 7 m/s 722 mmHg 74%
    15:00 +27°C° 0,1 mm 7 m/s 722 mmHg 74%
    16:00 +27°C° 0,1 mm 7 m/s 721 mmHg 75%
    17:00 +27°C° 0,4 mm 7 m/s 721 mmHg 76%
    18:00 +27°C° 0,4 mm 7 m/s 722 mmHg 78%
    19:00 +26°C° 0,4 mm 7 m/s 722 mmHg 79%
    20:00 +26°C° 0,7 mm 7 m/s 722 mmHg 80%
    21:00 +26°C° 0,7 mm 8 m/s 722 mmHg 81%
    22:00 +26°C° 0,7 mm 8 m/s 722 mmHg 82%
    23:00 +26°C° 0,6 mm 8 m/s 722 mmHg 82%

    Depois de amanhã, 24 Abril, Terça-feira

    Tempo Temperatura Precipitação Vento Pressão Humidade
    00:00 +26°C° 0,6 mm 8 m/s 721 mmHg 81%
    01:00 +26°C° 0,6 mm 8 m/s 721 mmHg 81%
    02:00 +26°C° 0,3 mm 8 m/s 721 mmHg 82%
    03:00 +26°C° 0,3 mm 9 m/s 721 mmHg 82%
    04:00 +26°C° 0,3 mm 9 m/s 720 mmHg 83%
    05:00 +26°C° 0,3 mm 9 m/s 720 mmHg 82%
    06:00 +26°C° 0,3 mm 9 m/s 720 mmHg 82%
    07:00 +26°C° 0,3 mm 9 m/s 720 mmHg 82%
    08:00 +26°C° 0,6 mm 10 m/s 721 mmHg 81%
    09:00 +27°C° 0,6 mm 11 m/s 721 mmHg 80%
    10:00 +27°C° 0,6 mm 11 m/s 721 mmHg 79%
    11:00 +27°C° 0,8 mm 11 m/s 720 mmHg 79%
    12:00 +27°C° 0,8 mm 12 m/s 720 mmHg 80%
    13:00 +27°C° 0,8 mm 12 m/s 719 mmHg 81%
    14:00 +27°C° 0,8 mm 12 m/s 719 mmHg 82%
    15:00 +26°C° 0,8 mm 12 m/s 718 mmHg 83%
    16:00 +26°C° 0,8 mm 12 m/s 718 mmHg 84%
    17:00 +26°C° 0,8 mm 12 m/s 718 mmHg 84%
    18:00 +26°C° 0,8 mm 12 m/s 718 mmHg 84%
    19:00 +26°C° 0,8 mm 12 m/s 718 mmHg 84%
    20:00 +26°C° 0,3 mm 12 m/s 719 mmHg 84%
    21:00 +26°C° 0,3 mm 11 m/s 719 mmHg 85%
    22:00 +26°C° 0,3 mm 11 m/s 719 mmHg 85%
    23:00 +26°C° 0,6 mm 9 m/s 719 mmHg 85%

    25 Abril, Quarta-feira

    Tempo Temperatura Precipitação Vento Pressão Humidade
    00:00 +26°C° 0,6 mm 8 m/s 719 mmHg 84%
    01:00 +26°C° 0,6 mm 7 m/s 719 mmHg 84%
    02:00 +26°C° 0,7 mm 6 m/s 719 mmHg 84%
    03:00 +25°C° 0,7 mm 5 m/s 719 mmHg 83%
    04:00 +25°C° 0,7 mm 4 m/s 719 mmHg 82%
    05:00 +25°C° 0,1 mm 5 m/s 719 mmHg 83%
    06:00 +25°C° 0,1 mm 5 m/s 720 mmHg 83%
    07:00 +25°C° 0,1 mm 5 m/s 720 mmHg 83%
    08:00 +24°C° 0 mm 6 m/s 720 mmHg 81%
    09:00 +24°C° 0 mm 7 m/s 721 mmHg 79%
    10:00 +26°C° 0 mm 7 m/s 721 mmHg 77%
    11:00 +26°C° 0 mm 7 m/s 721 mmHg 75%
    12:00 +26°C° 0 mm 8 m/s 720 mmHg 73%
    13:00 +26°C° 0 mm 8 m/s 720 mmHg 71%
    14:00 +26°C° 0 mm 8 m/s 720 mmHg 71%
    15:00 +26°C° 0 mm 8 m/s 720 mmHg 72%
    16:00 +26°C° 0 mm 8 m/s 720 mmHg 72%
    17:00 +26°C° 0 mm 8 m/s 720 mmHg 74%
    18:00 +24°C° 0 mm 8 m/s 720 mmHg 76%
    19:00 +24°C° 0 mm 8 m/s 721 mmHg 78%
    20:00 +24°C° 0 mm 7 m/s 721 mmHg 78%
    21:00 +24°C° 0 mm 7 m/s 721 mmHg 78%
    22:00 +24°C° 0 mm 7 m/s 721 mmHg 78%
    23:00 +24°C° 0 mm 7 m/s 721 mmHg 79%

    26 Abril, Quinta-feira

    Tempo Temperatura Precipitação Vento Pressão Humidade
    00:00 +23°C° 0 mm 7 m/s 721 mmHg 79%
    01:00 +23°C° 0 mm 7 m/s 721 mmHg 80%
    02:00 +23°C° 0 mm 7 m/s 720 mmHg 79%
    03:00 +23°C° 0 mm 7 m/s 720 mmHg 79%
    04:00 +23°C° 0 mm 7 m/s 720 mmHg 79%
    05:00 +23°C° 0 mm 7 m/s 720 mmHg 78%
    06:00 +23°C° 0 mm 7 m/s 721 mmHg 78%
    07:00 +23°C° 0 mm 7 m/s 721 mmHg 78%
    08:00 +24°C° 0 mm 7 m/s 721 mmHg 75%
    09:00 +24°C° 0 mm 7 m/s 722 mmHg 73%
    10:00 +26°C° 0 mm 7 m/s 722 mmHg 71%
    11:00 +26°C° 0 mm 7 m/s 721 mmHg 71%
    12:00 +26°C° 0 mm 8 m/s 721 mmHg 71%
    13:00 +26°C° 0 mm 8 m/s 721 mmHg 71%
    14:00 +26°C° 0 mm 8 m/s 721 mmHg 73%
    15:00 +26°C° 0 mm 9 m/s 720 mmHg 75%
    16:00 +26°C° 0 mm 9 m/s 720 mmHg 76%
    17:00 +24°C° 0 mm 9 m/s 721 mmHg 78%
    18:00 +24°C° 0 mm 10 m/s 721 mmHg 80%
    19:00 +24°C° 0 mm 10 m/s 721 mmHg 81%
    20:00 +24°C° 0,1 mm 10 m/s 721 mmHg 81%
    21:00 +24°C° 0,1 mm 10 m/s 721 mmHg 81%
    22:00 +24°C° 0,1 mm 10 m/s 722 mmHg 81%
    23:00 +24°C° 0,1 mm 10 m/s 721 mmHg 81%

    27 Abril, Sexta-feira

    Tempo Temperatura Precipitação Vento Pressão Humidade
    00:00 +24°C° 0,1 mm 10 m/s 721 mmHg 81%
    01:00 +24°C° 0,1 mm 10 m/s 721 mmHg 81%
    02:00 +24°C° 0,1 mm 10 m/s 720 mmHg 81%
    03:00 +24°C° 0,1 mm 10 m/s 720 mmHg 81%
    04:00 +24°C° 0,1 mm 11 m/s 720 mmHg 81%
    05:00 +24°C° 0,1 mm 11 m/s 720 mmHg 80%
    06:00 +24°C° 0,1 mm 11 m/s 721 mmHg 80%
    07:00 +24°C° 0,1 mm 11 m/s 721 mmHg 79%
    08:00 +26°C° 0,1 mm 11 m/s 721 mmHg 79%
    09:00 +26°C° 0,1 mm 11 m/s 721 mmHg 79%
    10:00 +26°C° 0,1 mm 11 m/s 722 mmHg 78%
    11:00 +26°C° 0,1 mm 11 m/s 721 mmHg 79%
    12:00 +26°C° 0,1 mm 11 m/s 721 mmHg 80%
    13:00 +24°C° 0,1 mm 12 m/s 720 mmHg 81%
    14:00 +24°C° 0,2 mm 12 m/s 720 mmHg 82%
    15:00 +24°C° 0,2 mm 12 m/s 720 mmHg 82%
    16:00 +24°C° 0,2 mm 12 m/s 721 mmHg 83%
    17:00 +24°C° 0,1 mm 12 m/s 721 mmHg 84%
    18:00 +24°C° 0,1 mm 12 m/s 721 mmHg 84%
    19:00 +24°C° 0,1 mm 12 m/s 722 mmHg 85%
    20:00 +24°C° 0,2 mm 12 m/s 722 mmHg 85%
    21:00 +24°C° 0,2 mm 11 m/s 723 mmHg 85%
    22:00 +24°C° 0,2 mm 11 m/s 723 mmHg 84%
    23:00 +24°C° 0,2 mm 11 m/s 723 mmHg 84%
    Mostrar mais